Time,TemperatureF,DewpointF,PressureIn,WindDirection,WindDirectionDegrees,WindSpeedMPH,WindSpeedGustMPH,Humidity,HourlyPrecipIn,Conditions,Clouds,dailyrainin,SoftwareType,DateUTC
2013-03-22 00:04:00,31.0,-99.9,29.88,NW,319,4.0,8.0,-999,-99.99,,,-99.99,,2013-03-22 04:04:00,
2013-03-22 00:13:00,-999.0,-99.9,29.88,WNW,303,5.0,9.0,-999,-99.99,,,-99.99,,2013-03-22 04:13:00,
2013-03-22 00:23:00,-999.0,-99.9,29.88,NW,315,5.0,8.0,-999,-99.99,,,-99.99,,2013-03-22 04:23:00,
2013-03-22 00:32:00,30.0,-99.9,29.88,NW,317,4.0,9.0,-999,-99.99,,,-99.99,,2013-03-22 04:32:00,
2013-03-22 00:43:00,-999.0,-99.9,29.88,NW,307,4.0,8.0,-999,-99.99,,,-99.99,,2013-03-22 04:43:00,
2013-03-22 00:53:00,30.0,-99.9,29.88,North,-999,-999.0,-999.0,-999,-99.99,,,-99.99,,2013-03-22 04:53:00,
2013-03-22 01:02:00,30.0,-99.9,29.87,NNW,329,8.0,11.0,-999,-99.99,,,-99.99,,2013-03-22 05:02:00,
2013-03-22 01:13:00,-999.0,-99.9,29.87,NNW,330,6.0,11.0,-999,-99.99,,,-99.99,,2013-03-22 05:13:00,
2013-03-22 01:22:00,-999.0,-99.9,29.87,NW,325,5.0,12.0,-999,-99.99,,,-99.99,,2013-03-22 05:22:00,
2013-03-22 01:32:00,-999.0,-99.9,29.87,NW,321,4.0,12.0,-999,-99.99,,,-99.99,,2013-03-22 05:32:00,
2013-03-22 01:42:00,30.0,-99.9,29.87,North,-999,-999.0,-999.0,-999,-99.99,,,-99.99,,2013-03-22 05:42:00,
2013-03-22 01:52:00,-999.0,-99.9,29.87,NW,319,5.0,8.0,-999,-99.99,,,-99.99,,2013-03-22 05:52:00,
2013-03-22 02:02:00,30.0,-99.9,29.86,NW,324,8.0,12.0,-999,-99.99,,,-99.99,,2013-03-22 06:02:00,
2013-03-22 02:13:00,-999.0,-99.9,29.87,NW,323,6.0,10.0,-999,-99.99,,,-99.99,,2013-03-22 06:13:00,
2013-03-22 02:22:00,30.0,-99.9,29.87,North,-999,-999.0,-999.0,-999,-99.99,,,-99.99,,2013-03-22 06:22:00,
2013-03-22 02:32:00,30.0,-99.9,29.87,NW,311,5.0,9.0,-999,-99.99,,,-99.99,,2013-03-22 06:32:00,
2013-03-22 02:43:00,30.0,-99.9,29.87,North,-999,-999.0,-999.0,-999,-99.99,,,-99.99,,2013-03-22 06:43:00,
2013-03-22 02:52:00,-999.0,-99.9,29.87,NW,318,5.0,8.0,-999,-99.99,,,-99.99,,2013-03-22 06:52:00,
2013-03-22 03:03:00,30.0,-99.9,29.87,NW,313,5.0,10.0,-999,-99.99,,,-99.99,,2013-03-22 07:03:00,
2013-03-22 03:12:00,30.0,-99.9,29.87,North,-999,-999.0,-999.0,-999,-99.99,,,-99.99,,2013-03-22 07:12:00,
2013-03-22 03:22:00,-999.0,-99.9,29.87,NW,309,5.0,9.0,-999,-99.99,,,-99.99,,2013-03-22 07:22:00,
2013-03-22 03:32:00,30.0,-99.9,29.87,NW,312,5.0,9.0,-999,-99.99,,,-99.99,,2013-03-22 07:32:00,
2013-03-22 03:42:00,29.0,-99.9,29.87,North,-999,-999.0,-999.0,-999,-99.99,,,-99.99,,2013-03-22 07:42:00,
2013-03-22 03:52:00,29.0,-99.9,29.87,North,-999,-999.0,-999.0,-999,-99.99,,,-99.99,,2013-03-22 07:52:00,
2013-03-22 04:03:00,-999.0,-99.9,29.87,NW,304,5.0,9.0,-999,-99.99,,,-99.99,,2013-03-22 08:03:00,
2013-03-22 04:13:00,-999.0,-99.9,29.87,WNW,301,7.0,12.0,-999,-99.99,,,-99.99,,2013-03-22 08:13:00,
2013-03-22 04:22:00,29.0,-99.9,29.86,North,-999,-999.0,-999.0,-999,-99.99,,,-99.99,,2013-03-22 08:22:00,
2013-03-22 04:32:00,29.0,-99.9,29.87,NW,313,4.0,9.0,-999,-99.99,,,-99.99,,2013-03-22 08:32:00,
2013-03-22 04:42:00,29.0,-99.9,29.87,North,-999,-999.0,-999.0,-999,-99.99,,,-99.99,,2013-03-22 08:42:00,
2013-03-22 04:52:00,29.0,-99.9,29.87,North,-999,-999.0,-999.0,-999,-99.99,,,-99.99,,2013-03-22 08:52:00,
2013-03-22 05:03:00,29.0,-99.9,29.86,NW,325,5.0,8.0,-999,-99.99,,,-99.99,,2013-03-22 09:03:00,
2013-03-22 05:12:00,29.0,-99.9,29.86,North,-999,-999.0,-999.0,-999,-99.99,,,-99.99,,2013-03-22 09:12:00,
2013-03-22 05:22:00,29.0,-99.9,29.87,North,-999,-999.0,-999.0,-999,-99.99,,,-99.99,,2013-03-22 09:22:00,
2013-03-22 05:33:00,30.0,-99.9,29.86,NW,311,6.0,11.0,-999,-99.99,,,-99.99,,2013-03-22 09:33:00,
2013-03-22 05:42:00,-999.0,-99.9,29.87,NW,312,5.0,9.0,-999,-99.99,,,-99.99,,2013-03-22 09:42:00,
2013-03-22 05:53:00,-999.0,-99.9,29.87,WNW,294,3.0,7.0,-999,-99.99,,,-99.99,,2013-03-22 09:53:00,
2013-03-22 06:04:00,30.0,-99.9,29.87,West,273,3.0,7.0,-999,-99.99,,,-99.99,,2013-03-22 10:04:00,
2013-03-22 06:12:00,30.0,-99.9,29.87,North,-999,-999.0,-999.0,-999,-99.99,,,-99.99,,2013-03-22 10:12:00,
2013-03-22 06:23:00,30.0,-99.9,29.88,North,-999,-999.0,-999.0,-999,-99.99,,,-99.99,,2013-03-22 10:23:00,
2013-03-22 06:33:00,30.0,-99.9,29.88,North,-999,-999.0,-999.0,-999,-99.99,,,-99.99,,2013-03-22 10:33:00,
2013-03-22 06:42:00,30.0,-99.9,29.88,North,-999,-999.0,-999.0,-999,-99.99,,,-99.99,,2013-03-22 10:42:00,
2013-03-22 06:52:00,-999.0,-99.9,29.88,WSW,253,3.0,5.0,-999,-99.99,,,-99.99,,2013-03-22 10:52:00,
2013-03-22 07:03:00,30.0,-99.9,29.89,NW,310,5.0,9.0,-999,-99.99,,,-99.99,,2013-03-22 11:03:00,
2013-03-22 07:12:00,30.0,-99.9,29.89,North,-999,-999.0,-999.0,-999,-99.99,,,-99.99,,2013-03-22 11:12:00,
2013-03-22 07:22:00,30.0,-99.9,29.89,North,-999,-999.0,-999.0,-999,-99.99,,,-99.99,,2013-03-22 11:22:00,
2013-03-22 07:33:00,30.0,-99.9,29.90,West,272,3.0,8.0,-999,-99.99,,,-99.99,,2013-03-22 11:33:00,
2013-03-22 07:42:00,30.0,-99.9,29.90,North,-999,-999.0,-999.0,-999,-99.99,,,-99.99,,2013-03-22 11:42:00,
2013-03-22 07:52:00,-999.0,-99.9,29.91,West,264,4.0,8.0,-999,-99.99,,,-99.99,,2013-03-22 11:52:00,
2013-03-22 08:02:00,31.0,-99.9,29.91,West,267,5.0,9.0,-999,-99.99,,,-99.99,,2013-03-22 12:02:00,
2013-03-22 08:12:00,31.0,-99.9,29.92,North,-999,-999.0,-999.0,-999,-99.99,,,-99.99,,2013-03-22 12:12:00,
2013-03-22 08:22:00,31.0,-99.9,29.92,North,-999,-999.0,-999.0,-999,-99.99,,,-99.99,,2013-03-22 12:22:00,
2013-03-22 08:32:00,31.0,-99.9,29.92,WSW,257,3.0,9.0,-999,-99.99,,,-99.99,,2013-03-22 12:32:00,
2013-03-22 08:42:00,31.0,-99.9,29.92,North,-999,-999.0,-999.0,-999,-99.99,,,-99.99,,2013-03-22 12:42:00,
2013-03-22 08:52:00,32.0,-99.9,29.93,North,-999,-999.0,-999.0,-999,-99.99,,,-99.99,,2013-03-22 12:52:00,
2013-03-22 09:02:00,32.0,-99.9,29.93,North,-999,-999.0,-999.0,-999,-99.99,,,-99.99,,2013-03-22 13:02:00,
2013-03-22 09:13:00,-999.0,-99.9,29.93,West,268,6.0,12.0,-999,-99.99,,,-99.99,,2013-03-22 13:13:00,
2013-03-22 09:22:00,33.0,-99.9,29.93,North,-999,-999.0,-999.0,-999,-99.99,,,-99.99,,2013-03-22 13:22:00,
2013-03-22 09:32:00,33.0,-99.9,29.93,NW,305,6.0,14.0,-999,-99.99,,,-99.99,,2013-03-22 13:32:00,
2013-03-22 09:42:00,-999.0,-99.9,29.93,NW,318,6.0,13.0,-999,-99.99,,,-99.99,,2013-03-22 13:42:00,
2013-03-22 09:53:00,-999.0,-99.9,29.93,NW,322,10.0,16.0,-999,-99.99,,,-99.99,,2013-03-22 13:53:00,
2013-03-22 10:03:00,34.0,-99.9,29.93,NW,325,7.0,17.0,-999,-99.99,,,-99.99,,2013-03-22 14:03:00,
2013-03-22 10:12:00,35.0,-99.9,29.93,North,-999,-999.0,-999.0,-999,-99.99,,,-99.99,,2013-03-22 14:12:00,
2013-03-22 10:22:00,-999.0,-99.9,29.93,NW,320,9.0,19.0,-999,-99.99,,,-99.99,,2013-03-22 14:22:00,
2013-03-22 10:32:00,35.0,-99.9,29.92,NW,321,14.0,21.0,-999,-99.99,,,-99.99,,2013-03-22 14:32:00,
2013-03-22 10:43:00,-999.0,-99.9,29.92,NNW,332,13.0,18.0,-999,-99.99,,,-99.99,,2013-03-22 14:43:00,
2013-03-22 10:52:00,-999.0,-99.9,29.91,NNW,327,10.0,19.0,-999,-99.99,,,-99.99,,2013-03-22 14:52:00,
2013-03-22 11:03:00,36.0,-99.9,29.92,NNW,335,9.0,18.0,-999,-99.99,,,-99.99,,2013-03-22 15:03:00,
2013-03-22 11:12:00,-999.0,-99.9,29.92,NW,324,9.0,21.0,-999,-99.99,,,-99.99,,2013-03-22 15:12:00,
2013-03-22 11:22:00,37.0,-99.9,29.92,North,-999,-999.0,-999.0,-999,-99.99,,,-99.99,,2013-03-22 15:22:00,
2013-03-22 11:33:00,36.0,-99.9,29.92,North,-999,-999.0,-999.0,-999,-99.99,,,-99.99,,2013-03-22 15:33:00,
2013-03-22 11:43:00,36.0,-99.9,29.92,North,-999,-999.0,-999.0,-999,-99.99,,,-99.99,,2013-03-22 15:43:00,
2013-03-22 11:53:00,-999.0,-99.9,29.92,NW,322,9.0,15.0,-999,-99.99,,,-99.99,,2013-03-22 15:53:00,
2013-03-22 12:03:00,38.0,-99.9,29.92,North,354,6.0,19.0,-999,-99.99,,,-99.99,,2013-03-22 16:03:00,
2013-03-22 12:13:00,37.0,-99.9,29.92,North,-999,-999.0,-999.0,-999,-99.99,,,-99.99,,2013-03-22 16:13:00,
2013-03-22 12:23:00,38.0,-99.9,29.92,North,-999,-999.0,-999.0,-999,-99.99,,,-99.99,,2013-03-22 16:23:00,
2013-03-22 12:32:00,38.0,-99.9,29.92,NW,325,7.0,19.0,-999,-99.99,,,-99.99,,2013-03-22 16:32:00,
2013-03-22 12:42:00,38.0,-99.9,29.91,North,-999,-999.0,-999.0,-999,-99.99,,,-99.99,,2013-03-22 16:42:00,
2013-03-22 12:53:00,-999.0,-99.9,29.91,NNW,344,15.0,21.0,-999,-99.99,,,-99.99,,2013-03-22 16:53:00,
2013-03-22 13:03:00,38.0,-99.9,29.91,NNW,345,10.0,18.0,-999,-99.99,,,-99.99,,2013-03-22 17:03:00,
2013-03-22 13:12:00,-999.0,-99.9,29.91,NNW,330,11.0,16.0,-999,-99.99,,,-99.99,,2013-03-22 17:12:00,
2013-03-22 13:23:00,38.0,-99.9,29.91,North,-999,-999.0,-999.0,-999,-99.99,,,-99.99,,2013-03-22 17:23:00,
2013-03-22 13:33:00,40.0,-99.9,29.91,NW,314,8.0,17.0,-999,-99.99,,,-99.99,,2013-03-22 17:33:00,
2013-03-22 13:43:00,-999.0,-99.9,29.90,WNW,302,10.0,20.0,-999,-99.99,,,-99.99,,2013-03-22 17:43:00,
2013-03-22 13:53:00,40.0,-99.9,29.90,North,-999,-999.0,-999.0,-999,-99.99,,,-99.99,,2013-03-22 17:53:00,
2013-03-22 14:02:00,-999.0,-99.9,29.90,WNW,285,7.0,15.0,-999,-99.99,,,-99.99,,2013-03-22 18:02:00,
2013-03-22 14:12:00,40.0,-99.9,29.90,North,-999,-999.0,-999.0,-999,-99.99,,,-99.99,,2013-03-22 18:12:00,
2013-03-22 14:22:00,41.0,-99.9,29.89,North,-999,-999.0,-999.0,-999,-99.99,,,-99.99,,2013-03-22 18:22:00,
2013-03-22 14:33:00,40.0,-99.9,29.89,NW,312,5.0,18.0,-999,-99.99,,,-99.99,,2013-03-22 18:33:00,
2013-03-22 14:42:00,-999.0,-99.9,29.89,NNW,341,9.0,15.0,-999,-99.99,,,-99.99,,2013-03-22 18:42:00,
2013-03-22 14:52:00,-999.0,-99.9,29.88,NW,305,9.0,16.0,-999,-99.99,,,-99.99,,2013-03-22 18:52:00,
2013-03-22 15:02:00,41.0,-99.9,29.88,North,-999,-999.0,-999.0,-999,-99.99,,,-99.99,,2013-03-22 19:02:00,
2013-03-22 15:12:00,42.0,-99.9,29.88,North,-999,-999.0,-999.0,-999,-99.99,,,-99.99,,2013-03-22 19:12:00,
2013-03-22 15:22:00,-999.0,-99.9,29.87,NW,322,10.0,18.0,-999,-99.99,,,-99.99,,2013-03-22 19:22:00,
2013-03-22 15:33:00,43.0,-99.9,29.88,NNW,331,8.0,15.0,-999,-99.99,,,-99.99,,2013-03-22 19:33:00,
2013-03-22 15:43:00,42.0,-99.9,29.88,North,-999,-999.0,-999.0,-999,-99.99,,,-99.99,,2013-03-22 19:43:00,
2013-03-22 15:52:00,42.0,-99.9,29.88,North,-999,-999.0,-999.0,-999,-99.99,,,-99.99,,2013-03-22 19:52:00,
2013-03-22 16:02:00,42.0,-99.9,29.87,NW,313,10.0,17.0,-999,-99.99,,,-99.99,,2013-03-22 20:02:00,
2013-03-22 16:13:00,43.0,-99.9,29.87,North,-999,-999.0,-999.0,-999,-99.99,,,-99.99,,2013-03-22 20:13:00,
2013-03-22 16:22:00,-999.0,-99.9,29.87,NNW,339,13.0,18.0,-999,-99.99,,,-99.99,,2013-03-22 20:22:00,
2013-03-22 16:32:00,43.0,-99.9,29.88,NW,311,9.0,17.0,-999,-99.99,,,-99.99,,2013-03-22 20:32:00,
2013-03-22 16:43:00,44.0,-99.9,29.88,North,-999,-999.0,-999.0,-999,-99.99,,,-99.99,,2013-03-22 20:43:00,
2013-03-22 16:52:00,-999.0,-99.9,29.88,North,354,9.0,20.0,-999,-99.99,,,-99.99,,2013-03-22 20:52:00,
2013-03-22 17:03:00,44.0,-99.9,29.88,NNW,338,9.0,15.0,-999,-99.99,,,-99.99,,2013-03-22 21:03:00,
2013-03-22 17:12:00,43.0,-99.9,29.88,North,-999,-999.0,-999.0,-999,-99.99,,,-99.99,,2013-03-22 21:12:00,
2013-03-22 17:22:00,43.0,-99.9,29.88,North,-999,-999.0,-999.0,-999,-99.99,,,-99.99,,2013-03-22 21:22:00,
2013-03-22 17:33:00,-999.0,-99.9,29.88,NNW,347,12.0,19.0,-999,-99.99,,,-99.99,,2013-03-22 21:33:00,
2013-03-22 17:43:00,-999.0,-99.9,29.89,NNW,340,12.0,19.0,-999,-99.99,,,-99.99,,2013-03-22 21:43:00,
2013-03-22 17:53:00,-999.0,-99.9,29.89,North,353,13.0,18.0,-999,-99.99,,,-99.99,,2013-03-22 21:53:00,
2013-03-22 18:03:00,43.0,-99.9,29.88,North,352,14.0,18.0,-999,-99.99,,,-99.99,,2013-03-22 22:03:00,
2013-03-22 18:12:00,-999.0,-99.9,29.89,NNW,338,7.0,15.0,-999,-99.99,,,-99.99,,2013-03-22 22:12:00,
2013-03-22 18:23:00,-999.0,-99.9,29.89,NNW,330,14.0,21.0,-999,-99.99,,,-99.99,,2013-03-22 22:23:00,
2013-03-22 18:32:00,43.0,-99.9,29.90,North,350,15.0,21.0,-999,-99.99,,,-99.99,,2013-03-22 22:32:00,
2013-03-22 18:43:00,-999.0,-99.9,29.90,NNW,347,12.0,20.0,-999,-99.99,,,-99.99,,2013-03-22 22:43:00,
2013-03-22 18:53:00,43.0,-99.9,29.91,North,-999,-999.0,-999.0,-999,-99.99,,,-99.99,,2013-03-22 22:53:00,
2013-03-22 19:02:00,43.0,-99.9,29.91,North,355,13.0,18.0,-999,-99.99,,,-99.99,,2013-03-22 23:02:00,
2013-03-22 19:12:00,-999.0,-99.9,29.91,NNW,344,11.0,21.0,-999,-99.99,,,-99.99,,2013-03-22 23:12:00,
2013-03-22 19:22:00,-999.0,-99.9,29.92,NNW,339,9.0,16.0,-999,-99.99,,,-99.99,,2013-03-22 23:22:00,
2013-03-22 19:33:00,42.0,-99.9,29.93,North,358,11.0,16.0,-999,-99.99,,,-99.99,,2013-03-22 23:33:00,
2013-03-22 19:42:00,-999.0,-99.9,29.93,North,5,13.0,18.0,-999,-99.99,,,-99.99,,2013-03-22 23:42:00,
2013-03-22 19:52:00,-999.0,-99.9,29.93,North,355,13.0,21.0,-999,-99.99,,,-99.99,,2013-03-22 23:52:00,
2013-03-22 20:02:00,41.0,-99.9,29.93,North,-999,-999.0,-999.0,-999,-99.99,,,-99.99,,2013-03-23 00:02:00,
2013-03-22 20:12:00,-999.0,-99.9,29.94,North,358,11.0,18.0,-999,-99.99,,,-99.99,,2013-03-23 00:12:00,
2013-03-22 20:23:00,40.0,-99.9,29.94,North,-999,-999.0,-999.0,-999,-99.99,,,-99.99,,2013-03-23 00:23:00,
2013-03-22 20:33:00,40.0,-99.9,29.95,North,5,9.0,16.0,-999,-99.99,,,-99.99,,2013-03-23 00:33:00,
2013-03-22 20:42:00,40.0,-99.9,29.95,North,-999,-999.0,-999.0,-999,-99.99,,,-99.99,,2013-03-23 00:42:00,
2013-03-22 20:52:00,-999.0,-99.9,29.95,NNE,16,11.0,15.0,-999,-99.99,,,-99.99,,2013-03-23 00:52:00,
2013-03-22 21:03:00,40.0,-99.9,29.96,North,7,10.0,17.0,-999,-99.99,,,-99.99,,2013-03-23 01:03:00,
2013-03-22 21:12:00,39.0,-99.9,29.96,North,-999,-999.0,-999.0,-999,-99.99,,,-99.99,,2013-03-23 01:12:00,
2013-03-22 21:22:00,-999.0,-99.9,29.96,North,10,8.0,12.0,-999,-99.99,,,-99.99,,2013-03-23 01:22:00,
2013-03-22 21:33:00,39.0,-99.9,29.97,North,7,8.0,12.0,-999,-99.99,,,-99.99,,2013-03-23 01:33:00,
2013-03-22 21:43:00,-999.0,-99.9,29.97,North,7,9.0,12.0,-999,-99.99,,,-99.99,,2013-03-23 01:43:00,
2013-03-22 21:53:00,39.0,-99.9,29.97,North,-999,-999.0,-999.0,-999,-99.99,,,-99.99,,2013-03-23 01:53:00,
2013-03-22 22:02:00,39.0,-99.9,29.98,North,7,8.0,13.0,-999,-99.99,,,-99.99,,2013-03-23 02:02:00,
2013-03-22 22:12:00,39.0,-99.9,29.98,North,-999,-999.0,-999.0,-999,-99.99,,,-99.99,,2013-03-23 02:12:00,
2013-03-22 22:23:00,-999.0,-99.9,29.98,North,1,9.0,14.0,-999,-99.99,,,-99.99,,2013-03-23 02:23:00,
2013-03-22 22:32:00,38.0,-99.9,29.98,North,-999,-999.0,-999.0,-999,-99.99,,,-99.99,,2013-03-23 02:32:00,
2013-03-22 22:42:00,-999.0,-99.9,29.98,North,6,9.0,15.0,-999,-99.99,,,-99.99,,2013-03-23 02:42:00,
2013-03-22 22:52:00,-999.0,-99.9,29.98,North,4,9.0,13.0,-999,-99.99,,,-99.99,,2013-03-23 02:52:00,
2013-03-22 23:03:00,38.0,-99.9,29.98,North,10,9.0,12.0,-999,-99.99,,,-99.99,,2013-03-23 03:03:00,
2013-03-22 23:12:00,-999.0,-99.9,29.98,North,8,10.0,14.0,-999,-99.99,,,-99.99,,2013-03-23 03:12:00,
2013-03-22 23:23:00,37.0,-99.9,29.98,North,-999,-999.0,-999.0,-999,-99.99,,,-99.99,,2013-03-23 03:23:00,
2013-03-22 23:34:00,37.0,-99.9,29.98,North,10,11.0,14.0,-999,-99.99,,,-99.99,,2013-03-23 03:34:00,
2013-03-22 23:44:00,-999.0,-99.9,29.98,North,4,8.0,14.0,-999,-99.99,,,-99.99,,2013-03-23 03:44:00,
2013-03-22 23:53:00,-999.0,-99.9,29.99,North,4,9.0,15.0,-999,-99.99,,,-99.99,,2013-03-23 03:53:00,